This is the latest recevied weather packets stored in our database for station/object IU5JAE-13. If no packets are shown the sender has not sent any weather packets the latest 10 day(s).
| Time | Temp. | Humidity | Pressure | Rain* | Wind** | Luminosity | Snow |
|---|---|---|---|---|---|---|---|
| 1788686125 | 27.78° C | 65% | 1023.3 hPa | 0 mm | - | 483 W/m² | - |
| 1788685523 | 27.78° C | 67% | 1023.2 hPa | 0 mm | - | 466 W/m² | - |
| 1788683716 | 27.22° C | 70% | 1023.1 hPa | 0 mm | - | 414 W/m² | - |
| 1788683134 | 26.67° C | 73% | 1023 hPa | 0 mm | - | 396 W/m² | - |
| 1788682531 | 26.67° C | 72% | 1023 hPa | 0 mm | - | 375 W/m² | - |
| 1788681929 | 27.22° C | 72% | 1023 hPa | 0 mm | - | 354 W/m² | - |
| 1788681326 | 27.22° C | 71% | 1022.8 hPa | 0 mm | - | 331 W/m² | - |
| 1788680724 | 27.22° C | 71% | 1022.9 hPa | 0 mm | - | 308 W/m² | - |
| 1788680121 | 26.67° C | 71% | 1022.7 hPa | 0 mm | - | 282 W/m² | - |
| 1788679519 | 26.11° C | 73% | 1022.7 hPa | 0 mm | - | 251 W/m² | - |
| 1788678917 | 25.56° C | 75% | 1022.6 hPa | 0 mm | - | 222 W/m² | - |
| 1788678334 | 25° C | 75% | 1022.5 hPa | 0 mm | - | 193 W/m² | - |
| 1788677732 | 24.44° C | 77% | 1022.4 hPa | 0 mm | - | 126 W/m² | - |
| 1788677130 | 25° C | 75% | 1022.3 hPa | 0 mm | - | 100 W/m² | - |
| 1788676527 | 23.33° C | 79% | 1022.3 hPa | 0 mm | - | 82 W/m² | - |
| 1788675925 | 22.78° C | 80% | 1022.2 hPa | 0 mm | - | 71 W/m² | - |
| 1788675322 | 23.33° C | 81% | 1022.1 hPa | 0 mm | - | 61 W/m² | - |
| 1788674720 | 24.44° C | 78% | 1021.9 hPa | 0 mm | - | 53 W/m² | - |
| 1788674118 | 23.33° C | 83% | 1021.8 hPa | 0 mm | - | 45 W/m² | - |
| 1788673515 | 23.89° C | 79% | 1021.7 hPa | 0 mm | - | 37 W/m² | - |
| 1788672933 | 22.78° C | 82% | 1021.8 hPa | 0 mm | - | 30 W/m² | - |
| 1788672330 | 21.67° C | 86% | 1021.7 hPa | 0 mm | - | 22 W/m² | - |
| 1788671728 | 20.56° C | 89% | 1021.6 hPa | 0 mm | - | 15 W/m² | - |
| 1788671125 | 20° C | 91% | 1021.5 hPa | 0 mm | - | 9 W/m² | - |
| 1788670523 | 20° C | 92% | 1021.5 hPa | 0 mm | - | 5 W/m² | - |
* Rain latest hour (hover to see other rain measurements)
** Current wind speed in m/s (hover to see current wind gust speed)